ITY24W LIMC-BIKF

Flight info

Callsign ITY24W
Flight time N/A
Altitude 40000
Route AOSTA DCT ORSUD DCT MOLUS DCT UNKIR/N0477F380 UM729 DJL/N0479F400 UH37 LAULY UM733 KOPOR UY376 VESAN/N0472F300 UL613 SOVAT/N0476F400 L613 TLA DCT BARKU DCT RATSU/M084F400 DCT ALDAN DCT ASRUN ASRUN3K
Aircraft A359/H-SDE2E3GHIJ3J4J5LM1ORWXY/LB1D1

Departure

Time 2026-04-30 12:02
Airport Milan Malpensa International Airport (LIMC)

Arrival

Time N/A
Airport Keflavik International Airport (BIKF)
Time Latitude Longitude Altitude Speed Heading
2026-04-30 11:45 45.62459 8.71790 770 ft 0 kts 258°
2026-04-30 11:49 45.62462 8.71811 740 ft 4 kts 259°
2026-04-30 11:49 45.62467 8.71849 739 ft 4 kts 257°
2026-04-30 11:50 45.62473 8.71874 740 ft 2 kts 205°
2026-04-30 11:50 45.62484 8.71875 739 ft 2 kts 167°
2026-04-30 11:50 45.62488 8.71874 738 ft 0 kts 168°
2026-04-30 11:52 45.62485 8.71875 738 ft 2 kts 168°
2026-04-30 11:53 45.62454 8.71883 740 ft 7 kts 168°
2026-04-30 11:53 45.62391 8.71901 743 ft 11 kts 169°
2026-04-30 11:53 45.62310 8.71924 742 ft 13 kts 169°
2026-04-30 11:53 45.62214 8.71951 742 ft 15 kts 168°
2026-04-30 11:54 45.62103 8.71982 743 ft 17 kts 169°
2026-04-30 11:54 45.61981 8.72015 742 ft 19 kts 169°
2026-04-30 11:54 45.61846 8.72052 741 ft 21 kts 169°
2026-04-30 11:54 45.61700 8.72093 740 ft 22 kts 169°
2026-04-30 11:55 45.61540 8.72137 742 ft 24 kts 169°
2026-04-30 11:55 45.61373 8.72184 742 ft 25 kts 169°
2026-04-30 11:55 45.61215 8.72257 739 ft 21 kts 125°
2026-04-30 11:55 45.61239 8.72399 741 ft 9 kts 85°
2026-04-30 11:56 45.61215 8.72454 743 ft 9 kts 130°
2026-04-30 11:56 45.61156 8.72532 741 ft 14 kts 143°
2026-04-30 11:56 45.61082 8.72633 741 ft 15 kts 110°
2026-04-30 11:56 45.61092 8.72776 744 ft 14 kts 79°
2026-04-30 11:57 45.61112 8.72924 745 ft 17 kts 79°
2026-04-30 11:57 45.61160 8.73079 742 ft 18 kts 40°
2026-04-30 11:57 45.61271 8.73181 739 ft 20 kts 33°
2026-04-30 11:57 45.61394 8.73268 741 ft 21 kts
2026-04-30 11:58 45.61538 8.73226 741 ft 22 kts 348°
2026-04-30 11:58 45.61623 8.73316 741 ft 17 kts 79°
2026-04-30 11:58 45.61610 8.73479 740 ft 17 kts 117°
2026-04-30 11:58 45.61596 8.73522 741 ft 0 kts 113°
2026-04-30 11:59 45.61595 8.73524 741 ft 1 kts 113°
2026-04-30 11:59 45.61588 8.73549 742 ft 5 kts 109°
2026-04-30 11:59 45.61584 8.73613 743 ft 8 kts 86°
2026-04-30 11:59 45.61600 8.73697 743 ft 8 kts 64°
2026-04-30 12:00 45.61654 8.73726 740 ft 9 kts 356°
2026-04-30 12:00 45.61676 8.73720 739 ft 0 kts 348°
2026-04-30 12:01 45.61684 8.73718 741 ft 7 kts 348°
2026-04-30 12:01 45.61913 8.73656 741 ft 69 kts 349°
2026-04-30 12:01 45.62610 8.73462 742 ft 133 kts 348°
2026-04-30 12:01 45.63665 8.73179 1059 ft 158 kts 351°
2026-04-30 12:02 45.64695 8.72870 1958 ft 145 kts 349°
2026-04-30 12:02 45.65696 8.72511 2531 ft 160 kts 343°
2026-04-30 12:02 45.66550 8.71318 2796 ft 186 kts 301°
2026-04-30 12:02 45.66906 8.69435 3243 ft 207 kts 277°
2026-04-30 12:03 45.67132 8.67317 3647 ft 226 kts 278°
2026-04-30 12:03 45.67622 8.62507 4749 ft 258 kts 278°
2026-04-30 12:03 45.67879 8.59944 5562 ft 263 kts 278°
2026-04-30 12:04 45.68135 8.57336 6487 ft 265 kts 278°
2026-04-30 12:04 45.68389 8.54736 7430 ft 266 kts 278°
2026-04-30 12:04 45.68648 8.52078 8306 ft 271 kts 278°
2026-04-30 12:04 45.68911 8.49399 9237 ft 274 kts 279°
2026-04-30 12:05 45.69179 8.46676 10212 ft 278 kts 279°
2026-04-30 12:05 45.69453 8.43895 10859 ft 292 kts 279°
2026-04-30 12:05 45.69749 8.40906 11273 ft 313 kts 279°
2026-04-30 12:05 45.70063 8.37724 11711 ft 332 kts 279°
2026-04-30 12:06 45.70394 8.34361 12184 ft 348 kts 279°
2026-04-30 12:06 45.70734 8.30880 12871 ft 357 kts 279°
2026-04-30 12:06 45.71078 8.27318 13607 ft 364 kts 280°
2026-04-30 12:06 45.71426 8.23697 14343 ft 370 kts 280°
2026-04-30 12:07 45.71779 8.20018 14996 ft 377 kts 280°
2026-04-30 12:07 45.72138 8.16282 15682 ft 381 kts 279°
2026-04-30 12:07 45.72498 8.12491 16331 ft 387 kts 279°
2026-04-30 12:07 45.72840 8.08900 16950 ft 391 kts 279°
2026-04-30 12:08 45.73209 8.05009 17621 ft 396 kts 279°
2026-04-30 12:08 45.73576 8.01127 18321 ft 400 kts 279°
2026-04-30 12:08 45.73950 7.97155 18922 ft 406 kts 279°
2026-04-30 12:08 45.74327 7.93129 19555 ft 410 kts 279°
2026-04-30 12:09 45.74706 7.89056 20188 ft 415 kts 279°
2026-04-30 12:09 45.75092 7.84933 20826 ft 419 kts 279°
2026-04-30 12:09 45.75479 7.80768 21471 ft 424 kts 279°
2026-04-30 12:09 45.75867 7.76561 22107 ft 428 kts 279°
2026-04-30 12:10 45.76257 7.72308 22757 ft 433 kts 279°
2026-04-30 12:10 45.76647 7.68026 23352 ft 438 kts 279°
2026-04-30 12:10 45.77044 7.63660 23967 ft 442 kts 279°
2026-04-30 12:10 45.77441 7.59269 24482 ft 446 kts 279°
2026-04-30 12:11 45.77838 7.54859 25080 ft 448 kts 279°
2026-04-30 12:11 45.78238 7.50410 25624 ft 451 kts 279°
2026-04-30 12:11 45.78652 7.45943 26234 ft 453 kts 281°
2026-04-30 12:11 45.79343 7.41543 26779 ft 453 kts 289°
2026-04-30 12:12 45.80465 7.37465 27338 ft 453 kts 298°
2026-04-30 12:12 45.82101 7.33594 27862 ft 454 kts 308°
2026-04-30 12:12 45.84205 7.30198 28376 ft 456 kts 319°
2026-04-30 12:12 45.86656 7.27334 28895 ft 457 kts 324°
2026-04-30 12:13 45.89245 7.24626 29373 ft 460 kts 326°
2026-04-30 12:13 45.91862 7.21993 29842 ft 464 kts 326°
2026-04-30 12:13 45.94529 7.19339 30304 ft 467 kts 326°
2026-04-30 12:13 45.97214 7.16661 30684 ft 470 kts 326°
2026-04-30 12:14 45.99907 7.13955 31005 ft 473 kts 326°
2026-04-30 12:14 46.02607 7.11212 31358 ft 476 kts 326°
2026-04-30 12:14 46.05298 7.08458 31705 ft 479 kts 326°
2026-04-30 12:14 46.08041 7.05638 32040 ft 481 kts 325°
2026-04-30 12:15 46.10767 7.02829 32396 ft 484 kts 325°
2026-04-30 12:15 46.13520 6.99990 32721 ft 486 kts 325°
2026-04-30 12:15 46.16269 6.97154 33198 ft 484 kts 325°
2026-04-30 12:15 46.18996 6.94336 33708 ft 483 kts 325°
2026-04-30 12:16 46.21724 6.91515 34160 ft 482 kts 325°
2026-04-30 12:16 46.23535 6.89640 34427 ft 481 kts 325°
2026-04-30 12:16 46.27143 6.85905 34955 ft 480 kts 325°
2026-04-30 12:16 46.29862 6.83086 35324 ft 479 kts 325°
2026-04-30 12:17 46.35263 6.77475 36062 ft 477 kts 325°
2026-04-30 12:17 46.37060 6.75605 36301 ft 477 kts 325°
2026-04-30 12:17 46.40656 6.71832 36752 ft 477 kts 323°
2026-04-30 12:18 46.42342 6.69806 36962 ft 477 kts 318°
2026-04-30 12:18 46.45307 6.65106 37369 ft 477 kts 307°
2026-04-30 12:18 46.46568 6.62413 37581 ft 477 kts 303°
2026-04-30 12:18 46.48299 6.58293 37883 ft 477 kts 301°
2026-04-30 12:19 46.49960 6.54136 38178 ft 477 kts 300°
2026-04-30 12:19 46.51597 6.49940 38476 ft 476 kts 300°
2026-04-30 12:19 46.53221 6.45749 38791 ft 475 kts 300°
2026-04-30 12:19 46.54839 6.41579 39039 ft 475 kts 300°
2026-04-30 12:20 46.56467 6.37401 39261 ft 474 kts 300°
2026-04-30 12:20 46.58075 6.33284 39472 ft 474 kts 300°
2026-04-30 12:20 46.59726 6.29065 39688 ft 474 kts 300°
2026-04-30 12:20 46.61333 6.24955 39872 ft 473 kts 300°
2026-04-30 12:21 46.62959 6.20796 40040 ft 474 kts 300°
2026-04-30 12:21 46.64589 6.16619 40140 ft 475 kts 300°
2026-04-30 12:21 46.67850 6.08238 40162 ft 475 kts 300°
2026-04-30 12:22 46.71105 5.99847 40150 ft 476 kts 300°
2026-04-30 12:22 46.74363 5.91418 40148 ft 476 kts 300°
2026-04-30 12:23 46.77609 5.82997 40139 ft 477 kts 300°
2026-04-30 12:23 46.80964 5.74644 40135 ft 477 kts 306°
2026-04-30 12:24 46.85380 5.67446 40134 ft 476 kts 316°
2026-04-30 12:24 46.90200 5.60767 40136 ft 477 kts 317°
2026-04-30 12:25 46.95021 5.54207 40132 ft 477 kts 317°
2026-04-30 12:25 46.99892 5.47537 40127 ft 477 kts 317°
2026-04-30 12:26 47.04693 5.40913 40130 ft 477 kts 317°
2026-04-30 12:26 47.09534 5.34204 40133 ft 477 kts 317°
2026-04-30 12:27 47.14222 5.27693 40131 ft 477 kts 317°
2026-04-30 12:27 47.19013 5.21021 40155 ft 478 kts 317°
2026-04-30 12:28 47.23847 5.14272 40154 ft 478 kts 317°
2026-04-30 12:28 47.28670 5.07498 40155 ft 479 kts 316°
2026-04-30 12:29 47.33289 5.00480 40155 ft 480 kts 315°
2026-04-30 12:29 47.38522 4.94336 40156 ft 479 kts 327°
2026-04-30 12:30 47.44223 4.89217 40156 ft 479 kts 330°
2026-04-30 12:30 47.50012 4.84301 40156 ft 480 kts 330°
2026-04-30 12:31 47.55801 4.79349 40155 ft 480 kts 330°
2026-04-30 12:31 47.61564 4.74352 40154 ft 480 kts 330°
2026-04-30 12:32 47.67335 4.69314 40151 ft 481 kts 330°
2026-04-30 12:32 47.73065 4.64299 40149 ft 481 kts 330°
2026-04-30 12:33 47.78832 4.59239 40150 ft 481 kts 330°
2026-04-30 12:33 47.84597 4.54172 40151 ft 481 kts 330°
2026-04-30 12:34 47.90360 4.49093 40152 ft 482 kts 330°
2026-04-30 12:34 47.96136 4.43986 40153 ft 482 kts 330°
2026-04-30 12:35 48.01896 4.38882 40157 ft 482 kts 330°
2026-04-30 12:35 48.07673 4.33752 40157 ft 482 kts 330°
2026-04-30 12:36 48.13410 4.28640 40158 ft 483 kts 330°
2026-04-30 12:36 48.19219 4.23450 40160 ft 483 kts 330°
2026-04-30 12:37 48.24987 4.18286 40158 ft 483 kts 330°
2026-04-30 12:37 48.30744 4.13116 40158 ft 484 kts 330°
2026-04-30 12:38 48.36511 4.07924 40157 ft 484 kts 330°
2026-04-30 12:38 48.42299 4.02699 40156 ft 484 kts 330°
2026-04-30 12:39 48.48081 3.97462 40163 ft 484 kts 330°
2026-04-30 12:39 48.53858 3.92220 40168 ft 484 kts 330°
2026-04-30 12:40 48.59624 3.86974 40182 ft 484 kts 330°
2026-04-30 12:40 48.65388 3.81713 40183 ft 484 kts 330°
2026-04-30 12:41 48.71132 3.76459 40178 ft 485 kts 330°
2026-04-30 12:41 48.76901 3.71166 40183 ft 485 kts 330°
2026-04-30 12:42 48.82684 3.65847 40187 ft 485 kts 330°
2026-04-30 12:42 48.88468 3.60509 40188 ft 486 kts 329°
2026-04-30 12:43 48.94247 3.55165 40192 ft 486 kts 329°
2026-04-30 12:43 48.99986 3.49838 40186 ft 486 kts 329°
2026-04-30 12:44 49.05799 3.44429 40187 ft 486 kts 330°
2026-04-30 12:44 49.11535 3.39084 40189 ft 486 kts 329°
2026-04-30 12:45 49.17314 3.33681 40193 ft 486 kts 329°
2026-04-30 12:45 49.23081 3.28272 40191 ft 487 kts 329°
2026-04-30 12:46 49.28862 3.22836 40191 ft 487 kts 329°
2026-04-30 12:46 49.34644 3.17380 40192 ft 487 kts 329°
2026-04-30 12:47 49.40418 3.11919 40192 ft 488 kts 329°
2026-04-30 12:47 49.46212 3.06426 40190 ft 488 kts 329°
2026-04-30 12:48 49.51995 3.00926 40189 ft 489 kts 329°
2026-04-30 12:48 49.57748 2.95438 40190 ft 489 kts 329°
2026-04-30 12:49 49.63537 2.89903 40189 ft 489 kts 329°
2026-04-30 12:49 49.69322 2.84355 40194 ft 489 kts 329°
2026-04-30 12:50 49.75107 2.78791 40199 ft 489 kts 329°
2026-04-30 12:50 49.80896 2.73207 40205 ft 489 kts 329°
2026-04-30 12:51 49.86669 2.67621 40212 ft 489 kts 328°
2026-04-30 12:51 49.92445 2.62017 40213 ft 489 kts 328°
2026-04-30 12:52 49.98209 2.56410 40212 ft 489 kts 328°
2026-04-30 12:52 50.03965 2.50794 40208 ft 489 kts 328°
2026-04-30 12:53 50.09700 2.45184 40206 ft 489 kts 328°
2026-04-30 12:53 50.15461 2.39529 40201 ft 489 kts 328°
2026-04-30 12:54 50.21224 2.33858 40200 ft 489 kts 328°
2026-04-30 12:54 50.26982 2.28176 40198 ft 490 kts 328°
2026-04-30 12:55 50.32747 2.22468 40201 ft 490 kts 328°
2026-04-30 12:55 50.38478 2.16778 40199 ft 490 kts 328°
2026-04-30 12:56 50.44227 2.11055 40204 ft 490 kts 328°
2026-04-30 12:56 50.49990 2.05300 40206 ft 490 kts 328°
2026-04-30 12:57 50.55737 1.99544 40208 ft 490 kts 328°
2026-04-30 12:57 50.60525 1.94736 40208 ft 491 kts 327°
2026-04-30 12:58 50.66285 1.88936 40209 ft 491 kts 327°
2026-04-30 12:58 50.72047 1.83116 40211 ft 492 kts 327°
2026-04-30 12:59 50.77815 1.77275 40225 ft 493 kts 327°
2026-04-30 12:59 50.83593 1.71405 40229 ft 494 kts 327°
2026-04-30 13:00 50.89382 1.65505 40229 ft 494 kts 327°
2026-04-30 13:00 50.95173 1.59588 40229 ft 495 kts 327°
2026-04-30 13:01 51.00956 1.53660 40229 ft 496 kts 327°
2026-04-30 13:01 51.06752 1.47702 40228 ft 497 kts 327°
2026-04-30 13:02 51.12519 1.41753 40233 ft 497 kts 327°
2026-04-30 13:02 51.18322 1.35751 40239 ft 497 kts 327°
2026-04-30 13:03 51.24137 1.29718 40244 ft 497 kts 327°
2026-04-30 13:03 51.29916 1.23704 40245 ft 498 kts 327°
2026-04-30 13:04 51.35702 1.17662 40248 ft 498 kts 327°
2026-04-30 13:04 51.41505 1.11586 40251 ft 498 kts 327°
2026-04-30 13:05 51.47274 1.05526 40258 ft 498 kts 327°
2026-04-30 13:06 51.55968 0.96360 40261 ft 498 kts 326°
2026-04-30 13:06 51.61757 0.90231 40266 ft 498 kts 326°
2026-04-30 13:07 51.67551 0.84079 40263 ft 498 kts 326°
2026-04-30 13:07 51.73098 0.78172 40259 ft 499 kts 326°
2026-04-30 13:08 51.78887 0.71989 40264 ft 498 kts 326°
2026-04-30 13:08 51.84660 0.65801 40259 ft 498 kts 326°
2026-04-30 13:09 51.90429 0.59598 40260 ft 498 kts 326°
2026-04-30 13:09 51.96196 0.53378 40260 ft 497 kts 326°
2026-04-30 13:10 52.01958 0.47146 40258 ft 497 kts 326°
2026-04-30 13:10 52.07715 0.40897 40261 ft 497 kts 326°
2026-04-30 13:11 52.13478 0.34625 40264 ft 498 kts 326°
2026-04-30 13:11 52.19228 0.28349 40264 ft 498 kts 326°
2026-04-30 13:12 52.24991 0.22033 40263 ft 498 kts 326°
2026-04-30 13:12 52.30716 0.15740 40264 ft 499 kts 326°
2026-04-30 13:13 52.39389 0.06172 40260 ft 499 kts 325°
2026-04-30 13:14 52.47987 -0.03363 40251 ft 499 kts 325°
2026-04-30 13:14 52.56610 -0.12969 40243 ft 500 kts 325°
2026-04-30 13:15 52.65238 -0.22626 40241 ft 500 kts 325°
2026-04-30 13:16 52.70992 -0.29093 40239 ft 500 kts 325°
2026-04-30 13:16 52.76699 -0.35529 40241 ft 500 kts 325°
2026-04-30 13:17 52.85302 -0.45270 40264 ft 500 kts 325°
2026-04-30 13:18 52.93900 -0.55054 40264 ft 500 kts 324°
2026-04-30 13:18 53.02490 -0.64875 40264 ft 499 kts 324°
2026-04-30 13:19 53.08214 -0.71447 40264 ft 499 kts 324°
2026-04-30 13:19 53.13934 -0.78036 40263 ft 499 kts 324°
2026-04-30 13:20 53.19640 -0.84634 40260 ft 499 kts 324°
2026-04-30 13:20 53.25346 -0.91248 40264 ft 499 kts 324°
2026-04-30 13:21 53.31049 -0.97882 40265 ft 499 kts 324°
2026-04-30 13:22 53.39565 -1.07830 40267 ft 499 kts 324°
2026-04-30 13:22 53.48105 -1.17855 40267 ft 500 kts 324°
2026-04-30 13:23 53.56657 -1.27946 40268 ft 500 kts 324°
2026-04-30 13:24 53.68040 -1.41457 40279 ft 501 kts 323°
2026-04-30 13:25 53.79444 -1.55084 40292 ft 502 kts 323°
2026-04-30 13:26 53.93688 -1.72237 40294 ft 503 kts 323°
2026-04-30 13:28 54.07919 -1.89517 40273 ft 504 kts 323°
2026-04-30 13:28 54.16608 -1.99643 40267 ft 505 kts 328°
2026-04-30 13:29 54.28787 -2.11685 40256 ft 505 kts 329°
2026-04-30 13:31 54.43967 -2.26679 40250 ft 504 kts 328°
2026-04-30 13:32 54.59128 -2.41811 40248 ft 503 kts 328°
2026-04-30 13:33 54.71218 -2.53973 40247 ft 502 kts 328°
2026-04-30 13:34 54.80238 -2.63100 40254 ft 502 kts 328°
2026-04-30 13:35 54.92275 -2.75356 40258 ft 501 kts 328°
2026-04-30 13:36 55.04280 -2.87667 40259 ft 500 kts 328°
2026-04-30 13:36 55.13260 -2.96930 40258 ft 500 kts 328°
2026-04-30 13:37 55.22243 -3.06246 40241 ft 501 kts 328°
2026-04-30 13:38 55.31195 -3.15580 40257 ft 501 kts 328°
2026-04-30 13:39 55.42158 -3.27080 40248 ft 502 kts 327°
2026-04-30 13:40 55.51181 -3.36594 40248 ft 503 kts 327°
2026-04-30 13:40 55.57256 -3.42762 40248 ft 504 kts 329°
2026-04-30 13:41 55.63388 -3.48863 40257 ft 505 kts 329°
2026-04-30 13:41 55.69500 -3.55000 40262 ft 505 kts 328°
2026-04-30 13:42 55.75620 -3.61209 40269 ft 506 kts 328°
2026-04-30 13:42 55.84746 -3.70525 40280 ft 508 kts 328°
2026-04-30 13:43 55.90965 -3.76901 40280 ft 517 kts 328°
2026-04-30 13:43 55.97219 -3.83336 40278 ft 520 kts 328°
2026-04-30 13:44 56.03483 -3.89802 40274 ft 519 kts 328°
2026-04-30 13:44 56.09688 -3.96232 40268 ft 519 kts 328°
2026-04-30 13:45 56.19050 -4.05982 40272 ft 518 kts 327°
2026-04-30 13:46 56.25272 -4.12493 40274 ft 517 kts 327°
2026-04-30 13:46 56.31450 -4.18982 40270 ft 516 kts 327°
2026-04-30 13:47 56.37635 -4.25503 40266 ft 515 kts 327°
2026-04-30 13:47 56.43501 -4.32864 40261 ft 510 kts 317°
2026-04-30 13:48 56.48846 -4.41285 40262 ft 508 kts 315°
2026-04-30 13:48 56.54067 -4.49931 40257 ft 507 kts 314°
2026-04-30 13:49 56.59238 -4.58515 40255 ft 507 kts 315°
2026-04-30 13:49 56.64465 -4.67159 40244 ft 507 kts 315°
2026-04-30 13:50 56.69686 -4.75800 40240 ft 507 kts 315°
2026-04-30 13:50 56.77507 -4.88804 40231 ft 507 kts 314°
2026-04-30 13:51 56.82717 -4.97511 40230 ft 507 kts 314°
2026-04-30 13:51 56.87908 -5.06223 40222 ft 507 kts 314°
2026-04-30 13:52 56.93061 -5.14904 40223 ft 507 kts 314°
2026-04-30 13:52 56.98225 -5.23639 40219 ft 506 kts 314°
2026-04-30 13:53 57.03409 -5.32441 40219 ft 506 kts 314°
2026-04-30 13:53 57.08573 -5.41247 40215 ft 506 kts 314°
2026-04-30 13:54 57.13722 -5.50062 40218 ft 506 kts 314°
2026-04-30 13:54 57.18865 -5.58893 40213 ft 505 kts 314°
2026-04-30 13:55 57.23991 -5.67761 40211 ft 505 kts 313°
2026-04-30 13:55 57.29114 -5.76664 40213 ft 505 kts 313°
2026-04-30 13:56 57.34224 -5.85579 40216 ft 505 kts 313°
2026-04-30 13:56 57.39330 -5.94523 40216 ft 504 kts 313°
2026-04-30 13:57 57.44392 -6.03426 40216 ft 504 kts 313°
2026-04-30 13:57 57.49467 -6.12390 40214 ft 504 kts 313°
2026-04-30 13:58 57.57075 -6.25893 40216 ft 503 kts 313°
2026-04-30 13:59 57.62139 -6.34926 40216 ft 503 kts 313°
2026-04-30 13:59 57.67185 -6.43964 40215 ft 503 kts 313°
2026-04-30 14:00 57.72226 -6.53029 40218 ft 503 kts 313°
2026-04-30 14:00 57.79781 -6.66687 40213 ft 503 kts 313°
2026-04-30 14:01 57.84752 -6.75718 40222 ft 503 kts 312°
2026-04-30 14:01 57.89774 -6.84879 40228 ft 503 kts 312°
2026-04-30 14:02 57.94786 -6.94060 40220 ft 503 kts 312°
2026-04-30 14:02 57.99783 -7.03252 40221 ft 502 kts 312°
2026-04-30 14:03 58.04786 -7.12492 40226 ft 502 kts 312°
2026-04-30 14:03 58.09772 -7.21738 40216 ft 502 kts 312°
2026-04-30 14:04 58.14718 -7.30949 40218 ft 502 kts 312°
2026-04-30 14:04 58.19688 -7.40242 40214 ft 501 kts 312°
2026-04-30 14:05 58.24647 -7.49554 40214 ft 501 kts 311°
2026-04-30 14:05 58.29600 -7.58893 40213 ft 501 kts 311°
2026-04-30 14:06 58.36983 -7.72887 40212 ft 501 kts 311°
2026-04-30 14:07 58.44374 -7.86984 40211 ft 500 kts 311°
2026-04-30 14:08 58.51746 -8.01134 40211 ft 500 kts 311°
2026-04-30 14:08 58.59094 -8.15326 40210 ft 500 kts 311°
2026-04-30 14:09 58.63986 -8.24828 40210 ft 500 kts 311°
2026-04-30 14:10 58.71302 -8.39109 40208 ft 500 kts 310°
2026-04-30 14:10 58.76139 -8.48601 40206 ft 500 kts 310°
2026-04-30 14:11 58.81005 -8.58189 40198 ft 500 kts 310°
2026-04-30 14:11 58.85855 -8.67794 40204 ft 499 kts 310°
2026-04-30 14:12 58.90718 -8.77402 40208 ft 499 kts 311°
2026-04-30 14:12 58.95584 -8.86994 40189 ft 498 kts 309°
2026-04-30 14:13 59.00321 -8.96645 40190 ft 492 kts 310°
2026-04-30 14:13 59.05018 -9.06115 40184 ft 481 kts 310°
2026-04-30 14:14 59.09615 -9.15397 40182 ft 473 kts 310°
2026-04-30 14:14 59.14140 -9.24614 40187 ft 471 kts 309°
2026-04-30 14:15 59.18650 -9.33757 40181 ft 464 kts 308°
2026-04-30 14:15 59.23078 -9.42828 40185 ft 462 kts 309°
2026-04-30 14:16 59.27557 -9.52053 40180 ft 473 kts 309°
2026-04-30 14:16 59.32131 -9.61503 40180 ft 484 kts 309°
2026-04-30 14:17 59.36778 -9.71133 40174 ft 493 kts 309°
2026-04-30 14:17 59.41512 -9.80980 40172 ft 497 kts 309°
2026-04-30 14:18 59.46258 -9.90894 40170 ft 497 kts 309°
2026-04-30 14:18 59.53357 -10.05811 40168 ft 497 kts 309°
2026-04-30 14:19 59.60430 -10.20773 40167 ft 497 kts 308°
2026-04-30 14:20 59.65110 -10.30729 40165 ft 497 kts 308°
2026-04-30 14:20 59.72153 -10.45795 40162 ft 497 kts 308°
2026-04-30 14:21 59.76847 -10.55891 40157 ft 497 kts 308°
2026-04-30 14:22 59.83866 -10.71075 40160 ft 497 kts 308°
2026-04-30 14:22 59.90859 -10.86302 40155 ft 497 kts 308°
2026-04-30 14:23 60.00158 -11.06711 40154 ft 496 kts 308°
2026-04-30 14:24 60.06325 -11.20349 40147 ft 496 kts 307°
2026-04-30 14:25 60.15551 -11.40903 40145 ft 495 kts 307°
2026-04-30 14:26 60.22408 -11.56302 40138 ft 494 kts 307°
2026-04-30 14:27 60.29271 -11.71822 40144 ft 494 kts 307°
2026-04-30 14:27 60.33826 -11.82180 40143 ft 493 kts 307°
2026-04-30 14:28 60.40618 -11.97712 40137 ft 493 kts 307°
2026-04-30 14:28 60.45154 -12.08147 40132 ft 493 kts 306°
2026-04-30 14:29 60.54199 -12.29096 40136 ft 493 kts 306°
2026-04-30 14:31 60.65451 -12.55428 40129 ft 493 kts 306°
2026-04-30 14:31 60.72185 -12.71334 40131 ft 494 kts 306°
2026-04-30 14:32 60.78877 -12.87252 40133 ft 494 kts 306°
2026-04-30 14:33 60.83348 -12.97949 40133 ft 494 kts 306°
2026-04-30 14:33 60.90045 -13.14067 40135 ft 494 kts 305°
2026-04-30 14:34 60.94499 -13.24849 40134 ft 494 kts 305°
2026-04-30 14:34 60.98913 -13.35586 40141 ft 494 kts 305°
2026-04-30 14:35 61.05564 -13.51860 40124 ft 494 kts 305°
2026-04-30 14:36 61.09981 -13.62731 40126 ft 494 kts 305°
2026-04-30 14:36 61.14391 -13.73637 40123 ft 494 kts 305°
2026-04-30 14:37 61.18792 -13.84574 40126 ft 494 kts 305°
2026-04-30 14:37 61.23180 -13.95531 40121 ft 493 kts 305°
2026-04-30 14:38 61.27557 -14.06515 40113 ft 493 kts 304°
2026-04-30 14:38 61.31924 -14.17523 40120 ft 493 kts 304°
2026-04-30 14:39 61.35549 -14.26705 40115 ft 493 kts 304°
2026-04-30 14:40 61.46952 -14.55824 40107 ft 491 kts 304°
2026-04-30 14:40 61.51311 -14.67054 40108 ft 491 kts 304°
2026-04-30 14:41 61.55605 -14.78171 40105 ft 491 kts 304°
2026-04-30 14:41 61.59894 -14.89329 40105 ft 490 kts 304°
2026-04-30 14:42 61.64167 -15.00500 40098 ft 490 kts 304°
2026-04-30 14:42 61.68437 -15.11720 40095 ft 490 kts 304°
2026-04-30 14:43 61.72663 -15.22878 40091 ft 489 kts 304°
2026-04-30 14:43 61.76911 -15.34148 40090 ft 489 kts 304°
2026-04-30 14:44 61.81135 -15.45412 40085 ft 489 kts 303°
2026-04-30 14:44 61.84645 -15.54813 40083 ft 489 kts 303°
2026-04-30 14:45 61.88852 -15.66133 40084 ft 488 kts 303°
2026-04-30 14:45 61.93046 -15.77471 40081 ft 488 kts 303°
2026-04-30 14:46 61.97228 -15.88835 40061 ft 488 kts 303°
2026-04-30 14:46 62.01342 -16.00069 40064 ft 487 kts 303°
2026-04-30 14:47 62.05461 -16.11375 40063 ft 487 kts 303°
2026-04-30 14:47 62.09607 -16.22809 40066 ft 486 kts 303°
2026-04-30 14:48 62.13736 -16.34256 40062 ft 486 kts 303°
2026-04-30 14:48 62.17856 -16.45735 40057 ft 486 kts 303°
2026-04-30 14:49 62.21963 -16.57234 40057 ft 485 kts 303°
2026-04-30 14:49 62.26056 -16.68751 40056 ft 485 kts 302°
2026-04-30 14:50 62.32180 -16.86094 40045 ft 486 kts 302°
2026-04-30 14:51 62.38263 -17.03455 40042 ft 486 kts 302°
2026-04-30 14:52 62.44349 -17.20955 40035 ft 486 kts 302°
2026-04-30 14:52 62.50399 -17.38486 40030 ft 486 kts 302°
2026-04-30 14:53 62.56438 -17.56119 40019 ft 485 kts 302°
2026-04-30 14:54 62.64405 -17.79590 40017 ft 483 kts 302°
2026-04-30 14:55 62.70348 -17.97262 40014 ft 481 kts 302°
2026-04-30 14:56 62.78209 -18.20845 40006 ft 479 kts 301°
2026-04-30 14:57 62.84057 -18.38551 39996 ft 478 kts 301°
2026-04-30 14:58 62.91803 -18.62216 39992 ft 477 kts 301°
2026-04-30 14:58 62.97243 -18.78978 39988 ft 467 kts 300°
2026-04-30 14:59 63.00985 -18.90581 39428 ft 462 kts 300°
2026-04-30 15:00 63.06578 -19.08060 37070 ft 467 kts 300°
2026-04-30 15:00 63.10329 -19.19852 35516 ft 469 kts 300°
2026-04-30 15:01 63.14042 -19.31577 34039 ft 469 kts 301°
2026-04-30 15:01 63.15831 -19.37246 33199 ft 469 kts 301°
2026-04-30 15:01 63.19548 -19.49062 31554 ft 465 kts 301°
2026-04-30 15:02 63.21389 -19.54941 30713 ft 463 kts 301°
2026-04-30 15:02 63.22629 -19.58910 30129 ft 461 kts 300°
2026-04-30 15:03 63.28728 -19.78518 27657 ft 439 kts 300°
2026-04-30 15:03 63.32105 -19.89457 26484 ft 425 kts 299°
2026-04-30 15:04 63.35398 -20.00179 25313 ft 412 kts 299°
2026-04-30 15:04 63.39603 -20.13947 23854 ft 396 kts 298°
2026-04-30 15:05 63.44139 -20.28892 22088 ft 376 kts 298°
2026-04-30 15:06 63.47011 -20.38406 21071 ft 363 kts 297°
2026-04-30 15:06 63.49794 -20.47678 20046 ft 360 kts 297°
2026-04-30 15:07 63.52571 -20.56961 18992 ft 356 kts 297°
2026-04-30 15:07 63.55310 -20.66150 17897 ft 352 kts 297°
2026-04-30 15:08 63.57994 -20.75194 16816 ft 348 kts 297°
2026-04-30 15:08 63.61977 -20.88677 15207 ft 343 kts 297°
2026-04-30 15:09 63.64584 -20.97544 14136 ft 340 kts 298°
2026-04-30 15:09 63.67171 -21.06375 13005 ft 336 kts 298°
2026-04-30 15:10 63.69726 -21.15136 11917 ft 333 kts 298°
2026-04-30 15:11 63.74618 -21.31960 10692 ft 294 kts 298°
2026-04-30 15:11 63.76754 -21.39353 10413 ft 268 kts 297°
2026-04-30 15:12 63.79632 -21.49380 10023 ft 243 kts 297°
2026-04-30 15:13 63.81469 -21.55839 9803 ft 256 kts 297°
2026-04-30 15:14 63.85398 -21.69622 8635 ft 261 kts 298°
2026-04-30 15:14 63.88335 -21.79977 7800 ft 259 kts 298°
2026-04-30 15:16 63.93189 -21.97191 6498 ft 258 kts 297°
2026-04-30 15:17 63.97015 -22.10856 5386 ft 255 kts 297°
2026-04-30 15:18 64.01725 -22.27802 4009 ft 251 kts 297°
2026-04-30 15:19 64.04497 -22.37825 3189 ft 246 kts 297°